Tracking 30744 objects as of 24-Jun-2025
HD Live streaming from Space Station
objects crossing your sky now

STARLINK-32419

Track STARLINK-32419 now!
10-day predictions
STARLINK-32419 is classified as:


NORAD ID: 61637
Int'l Code: 2024-191S
Perigee: 489.2 km
Apogee: 491.2 km
Inclination: 43.0 °
Period: 94.3 minutes
Semi major axis: 6861 km
RCS: Unknown
Launch date: October 23, 2024
Source: United States (US)
Launch site: AIR FORCE EASTERN TEST RANGE (AFETR)
Your satellite tracking list
Your tracking list is empty




NASA's NSSDC Master Catalog

Two Line Element Set (TLE):
1 61637U 24191S   25174.42676177 -.00003437  00000-0 -11544-3 0  9996
2 61637  42.9996 178.8410 0001435 275.7981  84.2707 15.27573683 37886
Source of the keplerian elements: AFSPC